SCP
0 0 0 0 0 0 0 0 0 0 0 0 0 0 0 0 0 0 0 0 0 0 0 0 0 0 0 0 0 0 0 0 0 0 0 0 0 0
0 0 0 0 0 0 0 0 0 0 0 0 0 0 0 0 0 0 0 0 0 0 0 0 0 0 0 0 0 0 0 0 0 0 0 0 0 0
0 0 0 0 0 0 0 0 0 0 0 0 0 0 0 0 0 0 0 0 0 0 0 0 0 0 0 0 0 0 0 0 0 0 0 0 0 0
0 0 0 0 0 0 0 0 0 0 0 0 0 0 0 0 0 0 0 0 0 0 0 0 0 0 0 0 0 0 0 0 0 0 0 0 0 0
0 0 0 0 0 0 0 0 0 0 0 0 0 0 0 0 0 0 0 0 0 0 0 0 0 0 0 0 0 0 0 0 0 0 0 0 0 0
0 0 0 0 0 0 0 0 0 0 0 0 0 0 0 0 0 0 0 0 0 0 0 0 0 0 0 0 0 0 0 0 0 0 0 0 0 0
0 0 0 0 0 0 0 0 0 0 0 0 0 0 0 0 0 0 0 0 0 0 0 0 0 0 0 0 0 0 0 0 0 0 0 0 0 0
0 0 0 0 0 0 0 0 0 0 0 0 0 0 0 0 0 0 0 0 0 0 0 0 0 0 0 0 0 0 0 0 0 0 0 0 0 0
0 0 0 0 0 0 0 0 0 0 0 0 0 0 0 0 0 0 0 0 0 0 0 0 0 0 0 0 0 0 0 0 0 0 0 0 0 0
0 0 0 0 0 0 0 0 0 0 0 0 0 0 0 0 0 0 0 0 0 0 0 0 0 0 0 0 0 0 0 0 0 0 0 0 0 0
0 0 0 0 0 0 0 0 0 0 0 0 0 0 0 0 0 0 0 0 0 0 0 0 0 0 0 0 0 0 0 0 0 0 0 0 0 0
0 0 0 0 0 0 0 0 0 0 0 0 0 0 0 0 0 0 0 0 0 0 0 0 0 0 0 0 0 0 0 0 0 0 0 0 0 0
0 0 0 0 0 0 0 0 0 0 0 0 0 0 0 0 0 0 0 0 0 0 0 0 0 0 0 0 0 0 0 0 0 0 0 0 0 0
0 0 0 0 0 0 0 0 0 0 0 0 0 0 0 0 0 0 0 0 0 0 0 0 0 0 0 0 0 0 0 0 0 0 0 0 0 0
0 0 0 0 0 0 0 0 0 0 0 0 0 0 0 0 0 0 0 0 0 0 0 0 0 0 0 0 0 0 0 0 0 0 0 0 0 0
0 0 0 0 0 0 0 0 0 0 0 0 0 0 0 0 0 0 0 0 0 0 0 0 0 0 0 0 0 0 0 0 0 0 0 0 0 0
0 0 0 0 0 0 0 0 0 0 0 0 0 0 0 0 0 0 0 0 0 0 0 0 0 0 0 0 0 0 0 0 0 0 0 0 0 0
0 0 0 0 0 0 0 0 0 0 0 0 0 0 0 0 0 0 0 0 0 0 0 0 0 0 0 0 0 0 0 0 0 0 0 0 0 0
0 0 0 0 0 0 0 0 0 0 0 0 0 0 0 0 0 0 0 0 0 0 0 0 0 0 0 0 0 0 0 0 0 0 0 0 0 0
0 0 0 0 0 0 0 0 0 0 0 0 0 0 0 0 0 0 0 0 0 0 0 0 0 0 0 0 0 0 0 0 0 0 0 0 0 0
0 0 0 0 0 0 0 0 0 0 0 0 0 0 0 0 0 0 0 0 0 0 0 0 0 0 0 0 0 0 0 0 0 0 0 0 0 0
0 0 0 0 0 0 0 0 0 0 0 0 0 0 0 0 0 0 0 0 0 0 0 0 0 0 0 0 0 0 0 0 0 0 0 0 0 0
0 0 0 0 0 0 0 0 0 0 0 0 0 0 0 0 0 0 0 0 0 0 0 0 0 0 0 0 0 0 0 0 0 0 0 0 0 0
Wind_Speed
3 3 2 1 1 1 2 3 4 3 2 2 1 1 1 0 0 1 1 2 2 2 2 3 3 3 3 2 2 2 3 3 4 4 4 5 5 6
2 3 2 1 1 1 2 1 2 3 3 2 2 1 0 1 1 1 1 2 2 2 2 2 2 2 3 2 2 2 3 3 4 4 5 6 6 7
3 3 3 2 2 1 2 2 1 2 2 1 1 0 0 0 1 1 1 1 1 2 2 3 2 2 2 2 3 3 3 3 4 5 6 6 7 7
4 4 3 2 2 2 2 2 2 2 3 2 1 0 1 1 0 1 1 1 1 2 3 3 3 2 3 3 3 3 3 3 4 5 6 7 8 8
5 5 4 4 3 2 2 2 1 1 1 2 1 1 0 0 0 1 1 2 2 2 2 2 3 3 4 3 3 3 4 4 4 5 6 7 7 8
3 3 4 5 5 4 3 3 2 2 2 2 1 1 0 0 0 1 2 2 2 2 2 2 3 4 4 4 4 4 4 5 6 6 6 7 7 8
3 2 3 4 5 4 3 3 3 3 2 2 1 1 1 0 1 1 1 2 2 1 1 2 2 2 2 4 5 5 5 6 6 6 7 7 8 9
4 3 2 3 4 4 4 4 4 4 3 2 2 2 2 2 1 1 1 1 2 1 1 3 1 2 2 2 5 6 6 6 7 7 7 8 9 9
4 3 2 2 3 3 4 3 2 2 3 3 3 3 3 3 2 2 1 2 3 2 1 3 2 3 3 4 7 7 6 6 7 8 8 8 9 10
3 4 4 3 3 4 4 3 2 1 1 2 2 2 2 2 2 2 2 1 2 2 1 2 2 3 4 3 6 7 7 8 8 8 8 9 9 10
2 3 4 4 5 6 4 4 2 1 2 3 2 1 1 1 1 1 0 0 2 2 0 1 2 3 3 3 4 7 8 8 9 9 9 9 10 10
2 3 4 4 5 5 4 4 3 2 1 1 1 1 1 1 1 1 1 1 1 2 1 1 1 2 3 3 2 3 4 7 9 9 10 10 10 6
3 2 2 5 5 5 4 3 5 3 2 2 1 0 0 0 1 1 1 2 2 3 2 1 1 1 2 4 4 3 3 3 4 5 7 10 11 8
3 2 3 5 4 4 3 4 4 3 2 1 1 0 1 1 1 1 1 1 2 3 3 2 2 2 2 4 5 4 3 3 3 4 4 8 9 11
3 4 4 4 3 2 3 4 3 2 2 2 2 2 1 2 1 1 1 1 2 2 2 2 3 3 3 4 5 4 5 4 3 4 4 5 5 5
2 4 4 3 2 2 2 1 1 2 2 2 2 1 1 1 1 1 1 2 2 3 2 3 3 4 4 5 5 6 5 4 4 4 5 5 5 4
3 2 1 1 1 1 1 1 1 1 1 1 1 1 1 1 1 1 1 1 2 3 3 2 2 3 5 5 5 6 5 5 5 5 5 7 6 5
3 2 2 2 2 2 2 1 1 2 2 1 1 2 2 2 2 1 2 2 3 3 3 3 3 3 3 4 7 6 5 5 5 5 4 6 8 6
2 2 2 2 2 2 2 2 2 2 1 2 2 2 2 2 2 2 3 3 3 4 3 3 2 2 4 6 4 4 4 4 5 5 5 5 7 8
1 2 2 2 2 2 2 2 2 2 2 2 2 2 2 3 3 3 3 3 4 4 4 3 3 3 4 5 5 5 6 5 5 6 6 5 6 9
1 2 2 2 2 2 2 2 2 2 2 2 3 3 3 3 3 4 4 5 5 4 5 5 5 6 3 2 4 5 4 6 8 6 6 6 6 6
2 2 2 2 2 2 2 2 2 3 3 3 3 3 3 3 4 5 4 4 4 4 5 4 3 2 2 4 6 6 6 5 7 10 10 9 5 5
2 2 2 2 2 2 2 3 3 3 3 3 3 3 3 3 4 4 4 4 4 4 4 4 3 3 4 4 5 6 7 7 5 5 6 9 12 14
Wind_Direction
184 178 171 173 159 154 148 158 161 185 231 241 257 292 284 326 55 61 40 25 5 353 345 345 347 343 335 338 350 347 345 336 323 314 309 309 311 313
180 173 176 170 151 151 157 157 164 170 200 214 226 260 293 45 53 36 358 31 7 346 337 340 342 338 334 339 346 345 339 330 319 314 310 307 307 309
182 179 189 173 168 177 159 149 151 147 180 234 237 245 84 242 339 347 342 332 325 332 328 324 319 319 329 336 333 325 323 320 313 311 313 312 309 308
190 181 187 169 172 174 159 157 166 159 162 194 220 222 250 247 302 326 335 335 306 312 306 305 310 319 317 310 316 314 309 308 309 309 307 307 306 306
189 185 183 165 174 171 159 159 160 144 145 165 193 197 249 293 356 331 331 315 309 304 296 304 314 316 311 302 300 304 302 301 303 303 305 304 304 303
176 179 178 175 177 172 169 171 158 139 131 147 163 171 203 306 55 293 306 302 308 322 312 313 312 312 310 305 299 295 294 299 302 301 303 304 304 302
157 164 167 166 173 177 175 171 160 154 152 158 180 182 199 206 239 253 269 300 307 297 302 305 301 291 294 294 291 287 292 295 298 298 300 303 305 302
160 158 152 152 156 157 151 154 160 166 173 182 201 204 222 223 233 237 254 296 296 304 311 301 290 275 280 269 290 295 295 296 298 298 301 302 302 301
158 153 149 139 145 135 121 111 120 150 177 185 190 214 219 217 207 224 239 249 261 287 296 282 289 277 281 284 295 293 295 300 302 302 302 303 303 302
151 151 152 153 151 141 129 120 117 118 151 158 178 205 214 208 200 207 221 252 281 292 240 264 291 287 297 286 285 290 296 297 297 299 300 301 304 303
150 154 155 155 157 155 145 143 135 121 93 118 134 124 115 130 154 132 153 314 295 295 276 239 279 292 289 280 283 294 299 296 297 298 300 302 304 306
141 149 164 167 168 170 168 160 166 187 148 93 71 41 30 46 65 183 193 211 266 279 263 236 266 313 302 287 282 285 292 299 304 303 304 304 306 303
160 163 164 163 167 173 177 176 183 176 153 147 136 77 17 3 328 291 222 209 233 258 263 241 261 276 273 298 300 285 279 288 296 294 295 299 300 299
165 170 166 165 173 174 175 166 165 159 141 140 154 226 263 280 283 273 260 246 245 254 258 227 234 246 267 286 290 297 295 285 283 285 284 294 293 294
157 161 161 162 166 170 165 166 166 159 153 168 204 230 239 252 273 296 301 289 284 279 265 241 238 249 248 262 278 285 297 290 276 282 286 284 283 285
139 145 149 150 147 143 148 165 174 179 181 194 207 222 232 241 264 280 287 297 300 295 276 255 246 237 254 260 263 273 273 277 288 286 289 286 280 271
140 123 129 144 162 160 154 163 172 177 193 197 197 213 228 244 260 264 268 279 271 284 299 297 274 258 250 254 264 265 271 274 279 290 294 293 284 274
153 157 169 181 192 191 190 199 203 201 203 206 214 220 228 236 254 260 253 252 262 269 276 287 305 311 303 272 241 257 265 271 286 289 285 291 293 288
162 171 181 189 197 196 198 210 220 219 208 213 221 226 232 239 243 247 248 253 260 265 267 264 263 267 290 293 278 232 259 284 291 290 282 278 285 292
176 181 193 201 203 205 209 216 217 212 214 222 226 230 230 236 244 247 246 248 258 265 271 262 244 240 252 273 281 279 266 266 276 285 290 288 282 286
206 204 205 208 212 212 216 220 220 221 222 225 231 234 231 232 243 248 251 259 260 259 263 265 258 269 266 270 278 280 274 270 276 278 286 293 296 294
220 216 218 215 211 212 215 219 225 231 229 229 232 235 235 234 240 245 247 251 254 256 261 269 272 270 250 259 273 282 289 293 289 286 278 268 271 278
226 223 224 222 222 222 222 222 225 232 233 233 236 239 239 242 243 244 246 248 256 263 269 277 279 267 262 262 272 280 286 295 299 300 290 282 281 280